Time,TemperatureF,DewpointF,PressureIn,WindDirection,WindDirectionDegrees,WindSpeedMPH,WindSpeedGustMPH,Humidity,HourlyPrecipIn,Conditions,Clouds,dailyrainin,SoftwareType,DateUTC
2013-02-24 00:00:00,33.7,32.7,29.84,NNE,18,2.0,2.0,96,0.00,,,0.18,Wunderground v.1.15,2013-02-24 05:00:00,
2013-02-24 00:05:00,33.7,32.7,29.83,NNW,344,2.0,3.0,96,0.00,,,0.00,Wunderground v.1.15,2013-02-24 05:05:00,
2013-02-24 00:10:00,33.7,32.7,29.83,North,360,2.0,4.0,96,0.00,,,0.00,Wunderground v.1.15,2013-02-24 05:10:00,
2013-02-24 00:15:00,33.7,32.7,29.83,NE,46,3.0,5.0,96,0.00,,,0.00,Wunderground v.1.15,2013-02-24 05:15:00,
2013-02-24 00:20:00,33.7,32.7,29.83,ENE,57,2.0,2.0,96,0.00,,,0.00,Wunderground v.1.15,2013-02-24 05:20:00,
2013-02-24 00:30:00,33.7,32.7,29.83,North,9,3.0,3.0,96,0.00,,,0.00,Wunderground v.1.15,2013-02-24 05:30:00,
2013-02-24 00:35:00,33.7,32.7,29.83,North,9,3.0,3.0,96,0.00,,,0.00,Wunderground v.1.15,2013-02-24 05:35:00,
2013-02-24 00:40:00,33.7,32.7,29.83,NE,41,2.0,2.0,96,0.00,,,0.00,Wunderground v.1.15,2013-02-24 05:40:00,
2013-02-24 00:45:00,33.7,32.7,29.83,North,5,3.0,4.0,96,0.00,,,0.00,Wunderground v.1.15,2013-02-24 05:45:00,
2013-02-24 00:50:00,33.7,32.7,29.83,NE,52,2.0,3.0,96,0.00,,,0.00,Wunderground v.1.15,2013-02-24 05:50:00,
2013-02-24 00:55:00,33.7,32.7,29.83,ENE,69,2.0,4.0,96,0.00,,,0.00,Wunderground v.1.15,2013-02-24 05:55:00,
2013-02-24 01:00:00,33.7,32.7,29.83,North,355,2.0,2.0,96,0.00,,,0.00,Wunderground v.1.15,2013-02-24 06:00:00,
2013-02-24 01:05:00,33.7,32.7,29.82,NE,45,2.0,2.0,96,0.00,,,0.00,Wunderground v.1.15,2013-02-24 06:05:00,
2013-02-24 01:15:00,33.7,32.7,29.82,NE,46,3.0,3.0,96,0.00,,,0.00,Wunderground v.1.15,2013-02-24 06:15:00,
2013-02-24 01:20:00,33.7,32.7,29.82,NE,34,3.0,3.0,96,0.00,,,0.00,Wunderground v.1.15,2013-02-24 06:20:00,
2013-02-24 01:25:00,33.7,32.7,29.82,NNE,18,2.0,3.0,96,0.00,,,0.00,Wunderground v.1.15,2013-02-24 06:25:00,
2013-02-24 01:35:00,33.7,32.7,29.80,NE,55,1.0,3.0,96,0.00,,,0.00,Wunderground v.1.15,2013-02-24 06:35:00,
2013-02-24 01:40:00,33.7,32.7,29.80,NNE,24,2.0,5.0,96,0.00,,,0.00,Wunderground v.1.15,2013-02-24 06:40:00,
2013-02-24 01:50:00,33.7,32.7,29.80,North,355,2.0,3.0,96,0.00,,,0.00,Wunderground v.1.15,2013-02-24 06:50:00,
2013-02-24 01:55:00,33.7,32.7,29.80,NNE,23,3.0,3.0,96,0.00,,,0.00,Wunderground v.1.15,2013-02-24 06:55:00,
2013-02-24 02:00:00,33.8,32.8,29.80,NNE,15,3.0,3.0,96,0.00,,,0.00,Wunderground v.1.15,2013-02-24 07:00:00,
2013-02-24 02:05:00,33.8,32.8,29.79,NNE,20,2.0,3.0,96,0.00,,,0.00,Wunderground v.1.15,2013-02-24 07:05:00,
2013-02-24 02:15:00,33.8,32.8,29.79,NE,41,2.0,2.0,96,0.00,,,0.00,Wunderground v.1.15,2013-02-24 07:15:00,
2013-02-24 02:20:00,33.8,32.8,29.79,NE,39,1.0,1.0,96,0.00,,,0.00,Wunderground v.1.15,2013-02-24 07:20:00,
2013-02-24 02:30:00,33.8,32.8,29.79,NE,44,2.0,2.0,96,0.00,,,0.00,Wunderground v.1.15,2013-02-24 07:30:00,
2013-02-24 02:35:00,33.8,32.8,29.78,NNW,329,2.0,2.0,96,0.00,,,0.00,Wunderground v.1.15,2013-02-24 07:35:00,
2013-02-24 02:40:00,33.8,32.8,29.78,WNW,298,1.0,1.0,96,0.00,,,0.00,Wunderground v.1.15,2013-02-24 07:40:00,
2013-02-24 02:45:00,33.8,32.8,29.78,NNW,343,1.0,1.0,96,0.00,,,0.00,Wunderground v.1.15,2013-02-24 07:45:00,
2013-02-24 02:55:00,33.8,32.8,29.78,NNE,27,1.0,2.0,96,0.00,,,0.00,Wunderground v.1.15,2013-02-24 07:55:00,
2013-02-24 03:00:00,34.0,33.0,29.78,NE,42,1.0,1.0,96,0.00,,,0.00,Wunderground v.1.15,2013-02-24 08:00:00,
2013-02-24 03:05:00,34.0,33.0,29.78,NNE,12,1.0,1.0,96,0.00,,,0.00,Wunderground v.1.15,2013-02-24 08:05:00,
2013-02-24 03:15:00,34.0,33.0,29.78,NE,40,1.0,2.0,96,0.00,,,0.00,Wunderground v.1.15,2013-02-24 08:15:00,
2013-02-24 03:20:00,34.0,33.0,29.78,NE,43,1.0,1.0,96,0.00,,,0.00,Wunderground v.1.15,2013-02-24 08:20:00,
2013-02-24 03:25:00,34.0,33.0,29.78,NNE,32,2.0,2.0,96,0.00,,,0.00,Wunderground v.1.15,2013-02-24 08:25:00,
2013-02-24 03:30:00,34.0,33.0,29.78,NE,42,2.0,2.0,96,0.00,,,0.00,Wunderground v.1.15,2013-02-24 08:30:00,
2013-02-24 03:35:00,34.0,33.0,29.76,NE,53,2.0,2.0,96,0.00,,,0.00,Wunderground v.1.15,2013-02-24 08:35:00,
2013-02-24 03:40:00,34.0,33.0,29.76,NNE,16,1.0,1.0,96,0.00,,,0.00,Wunderground v.1.15,2013-02-24 08:40:00,
2013-02-24 03:45:00,34.0,33.0,29.76,NE,51,2.0,2.0,96,0.00,,,0.00,Wunderground v.1.15,2013-02-24 08:45:00,
2013-02-24 03:55:00,34.0,33.0,29.75,NNE,30,1.0,5.0,96,0.00,,,0.00,Wunderground v.1.15,2013-02-24 08:55:00,
2013-02-24 04:05:00,34.0,33.0,29.75,NE,46,2.0,2.0,96,0.00,,,0.00,Wunderground v.1.15,2013-02-24 09:05:00,
2013-02-24 04:10:00,34.0,33.0,29.75,NNE,18,1.0,1.0,96,0.00,,,0.00,Wunderground v.1.15,2013-02-24 09:10:00,
2013-02-24 04:15:00,34.0,33.0,29.75,NE,46,1.0,1.0,96,0.00,,,0.00,Wunderground v.1.15,2013-02-24 09:15:00,
2013-02-24 04:20:00,34.1,33.1,29.75,NW,315,1.0,2.0,96,0.00,,,0.00,Wunderground v.1.15,2013-02-24 09:20:00,
2013-02-24 04:30:00,34.1,33.1,29.75,NNW,344,1.0,1.0,96,0.00,,,0.00,Wunderground v.1.15,2013-02-24 09:30:00,
2013-02-24 04:35:00,34.1,33.1,29.77,NE,36,1.0,1.0,96,0.00,,,0.00,Wunderground v.1.15,2013-02-24 09:35:00,
2013-02-24 04:40:00,34.3,33.3,29.77,NNW,329,1.0,4.0,96,0.00,,,0.00,Wunderground v.1.15,2013-02-24 09:40:00,
2013-02-24 04:50:00,34.3,33.3,29.77,NNW,343,1.0,2.0,96,0.00,,,0.00,Wunderground v.1.15,2013-02-24 09:50:00,
2013-02-24 05:00:00,34.4,33.4,29.77,NNW,340,1.0,3.0,96,0.00,,,0.00,Wunderground v.1.15,2013-02-24 10:00:00,
2013-02-24 05:05:00,34.4,33.4,29.77,ENE,60,1.0,4.0,96,0.00,,,0.01,Wunderground v.1.15,2013-02-24 10:05:00,
2013-02-24 05:15:00,34.6,33.6,29.77,East,96,2.0,4.0,96,0.00,,,0.01,Wunderground v.1.15,2013-02-24 10:15:00,
2013-02-24 05:25:00,34.6,33.6,29.76,NNE,13,1.0,1.0,96,0.00,,,0.01,Wunderground v.1.15,2013-02-24 10:25:00,
2013-02-24 05:35:00,34.6,33.6,29.75,NE,51,1.0,1.0,96,0.00,,,0.01,Wunderground v.1.15,2013-02-24 10:35:00,
2013-02-24 05:45:00,34.6,33.6,29.75,NNW,346,1.0,1.0,96,0.00,,,0.01,Wunderground v.1.15,2013-02-24 10:45:00,
2013-02-24 05:50:00,34.6,33.6,29.76,NE,37,1.0,2.0,96,0.00,,,0.01,Wunderground v.1.15,2013-02-24 10:50:00,
2013-02-24 06:00:00,34.6,33.6,29.76,NNE,26,0.0,0.0,96,0.00,,,0.01,Wunderground v.1.15,2013-02-24 11:00:00,
2013-02-24 06:10:00,34.6,33.6,29.76,NNW,348,1.0,4.0,96,0.00,,,0.01,Wunderground v.1.15,2013-02-24 11:10:00,
2013-02-24 06:20:00,34.7,33.7,29.75,North,360,1.0,1.0,96,0.00,,,0.01,Wunderground v.1.15,2013-02-24 11:20:00,
2013-02-24 06:25:00,34.7,33.7,29.75,NNE,23,1.0,5.0,96,0.00,,,0.01,Wunderground v.1.15,2013-02-24 11:25:00,
2013-02-24 06:30:00,34.7,33.7,29.75,NE,56,1.0,1.0,96,0.00,,,0.01,Wunderground v.1.15,2013-02-24 11:30:00,
2013-02-24 06:40:00,34.7,33.7,29.74,West,279,1.0,1.0,96,0.00,,,0.01,Wunderground v.1.15,2013-02-24 11:40:00,
2013-02-24 06:45:00,34.7,33.7,29.74,NE,54,1.0,2.0,96,0.00,,,0.01,Wunderground v.1.15,2013-02-24 11:45:00,
2013-02-24 06:55:00,34.7,33.7,29.74,NNE,28,1.0,1.0,96,0.00,,,0.01,Wunderground v.1.15,2013-02-24 11:55:00,
2013-02-24 07:00:00,34.7,33.7,29.74,NNW,347,1.0,1.0,96,0.00,,,0.01,Wunderground v.1.15,2013-02-24 12:00:00,
2013-02-24 07:10:00,34.9,33.9,29.74,NNE,24,2.0,2.0,96,0.00,,,0.01,Wunderground v.1.15,2013-02-24 12:10:00,
2013-02-24 07:15:00,34.9,33.9,29.74,NNE,15,1.0,2.0,96,0.00,,,0.01,Wunderground v.1.15,2013-02-24 12:15:00,
2013-02-24 07:25:00,34.9,33.9,29.74,NW,311,2.0,4.0,96,0.00,,,0.01,Wunderground v.1.15,2013-02-24 12:25:00,
2013-02-24 07:30:00,35.0,34.0,29.74,NE,46,2.0,2.0,96,0.00,,,0.01,Wunderground v.1.15,2013-02-24 12:30:00,
2013-02-24 07:35:00,35.0,34.0,29.74,NNE,17,1.0,2.0,96,0.00,,,0.01,Wunderground v.1.15,2013-02-24 12:35:00,
2013-02-24 07:40:00,35.2,34.2,29.74,NE,34,1.0,5.0,96,0.00,,,0.01,Wunderground v.1.15,2013-02-24 12:40:00,
2013-02-24 07:45:00,35.2,34.2,29.74,NNE,33,1.0,5.0,96,0.00,,,0.01,Wunderground v.1.15,2013-02-24 12:45:00,
2013-02-24 07:55:00,35.3,34.0,29.74,NNW,336,1.0,1.0,95,0.00,,,0.01,Wunderground v.1.15,2013-02-24 12:55:00,
2013-02-24 08:05:00,35.5,34.2,29.74,NNE,22,1.0,1.0,95,0.00,,,0.01,Wunderground v.1.15,2013-02-24 13:05:00,
2013-02-24 08:15:00,35.6,34.3,29.74,NNE,32,1.0,5.0,95,0.00,,,0.01,Wunderground v.1.15,2013-02-24 13:15:00,
2013-02-24 08:20:00,35.8,34.5,29.73,NNE,28,1.0,2.0,95,0.00,,,0.01,Wunderground v.1.15,2013-02-24 13:20:00,
2013-02-24 08:25:00,35.8,34.5,29.73,NNE,16,1.0,2.0,95,0.00,,,0.01,Wunderground v.1.15,2013-02-24 13:25:00,
2013-02-24 08:30:00,35.9,34.6,29.73,ENE,68,1.0,7.0,95,0.00,,,0.01,Wunderground v.1.15,2013-02-24 13:30:00,
2013-02-24 08:40:00,36.2,34.6,29.72,NNE,28,2.0,4.0,94,0.00,,,0.01,Wunderground v.1.15,2013-02-24 13:40:00,
2013-02-24 08:45:00,36.2,34.6,29.72,NE,47,2.0,4.0,94,0.00,,,0.01,Wunderground v.1.15,2013-02-24 13:45:00,
2013-02-24 08:50:00,36.2,34.4,29.72,NE,45,2.0,9.0,93,0.00,,,0.01,Wunderground v.1.15,2013-02-24 13:50:00,
2013-02-24 09:00:00,36.3,34.5,29.72,NNE,31,2.0,8.0,93,0.00,,,0.01,Wunderground v.1.15,2013-02-24 14:00:00,
2013-02-24 09:05:00,36.3,34.5,29.72,NE,36,3.0,8.0,93,0.00,,,0.01,Wunderground v.1.15,2013-02-24 14:05:00,
2013-02-24 09:10:00,36.5,34.7,29.72,NW,323,2.0,2.0,93,0.00,,,0.01,Wunderground v.1.15,2013-02-24 14:10:00,
2013-02-24 09:15:00,36.5,34.7,29.72,North,360,1.0,2.0,93,0.00,,,0.01,Wunderground v.1.15,2013-02-24 14:15:00,
2013-02-24 09:20:00,36.5,34.4,29.72,NE,41,1.0,1.0,92,0.00,,,0.01,Wunderground v.1.15,2013-02-24 14:20:00,
2013-02-24 09:25:00,36.5,34.4,29.72,NE,46,1.0,6.0,92,0.00,,,0.01,Wunderground v.1.15,2013-02-24 14:25:00,
2013-02-24 09:30:00,36.6,34.5,29.72,North,355,2.0,4.0,92,0.00,,,0.01,Wunderground v.1.15,2013-02-24 14:30:00,
2013-02-24 09:40:00,36.6,34.5,29.73,NE,46,2.0,4.0,92,0.00,,,0.01,Wunderground v.1.15,2013-02-24 14:40:00,
2013-02-24 09:45:00,36.6,34.5,29.73,NNE,32,2.0,4.0,92,0.00,,,0.01,Wunderground v.1.15,2013-02-24 14:45:00,
2013-02-24 09:55:00,36.9,34.8,29.73,NNE,24,1.0,2.0,92,0.00,,,0.01,Wunderground v.1.15,2013-02-24 14:55:00,
2013-02-24 10:00:00,36.9,34.8,29.73,NNW,328,2.0,2.0,92,0.00,,,0.01,Wunderground v.1.15,2013-02-24 15:00:00,
2013-02-24 10:05:00,37.0,34.9,29.72,NE,48,1.0,2.0,92,0.00,,,0.01,Wunderground v.1.15,2013-02-24 15:05:00,
2013-02-24 10:15:00,37.0,34.9,29.72,NE,34,2.0,6.0,92,0.00,,,0.01,Wunderground v.1.15,2013-02-24 15:15:00,
2013-02-24 10:20:00,37.0,34.9,29.70,NNE,27,3.0,6.0,92,0.00,,,0.01,Wunderground v.1.15,2013-02-24 15:20:00,
2013-02-24 10:25:00,37.3,35.2,29.70,NNE,13,4.0,6.0,92,0.00,,,0.01,Wunderground v.1.15,2013-02-24 15:25:00,
2013-02-24 10:35:00,37.5,35.4,29.71,NNW,346,2.0,3.0,92,0.00,,,0.01,Wunderground v.1.15,2013-02-24 15:35:00,
2013-02-24 10:40:00,37.5,35.4,29.71,NW,312,3.0,3.0,92,0.00,,,0.01,Wunderground v.1.15,2013-02-24 15:40:00,
2013-02-24 10:45:00,37.3,35.2,29.71,North,355,2.0,3.0,92,0.00,,,0.01,Wunderground v.1.15,2013-02-24 15:45:00,
2013-02-24 10:50:00,37.3,35.2,29.72,NNW,340,1.0,1.0,92,0.00,,,0.01,Wunderground v.1.15,2013-02-24 15:50:00,
2013-02-24 10:55:00,37.3,35.2,29.72,NNE,30,2.0,2.0,92,0.00,,,0.01,Wunderground v.1.15,2013-02-24 15:55:00,
2013-02-24 11:05:00,37.5,35.1,29.72,NE,55,2.0,2.0,91,0.00,,,0.01,Wunderground v.1.15,2013-02-24 16:05:00,
2013-02-24 11:10:00,37.5,35.1,29.72,North,355,2.0,2.0,91,0.00,,,0.01,Wunderground v.1.15,2013-02-24 16:10:00,
2013-02-24 11:15:00,37.5,34.8,29.72,NNE,22,2.0,2.0,90,0.00,,,0.01,Wunderground v.1.15,2013-02-24 16:15:00,
2013-02-24 11:20:00,37.6,34.9,29.72,NW,321,2.0,3.0,90,0.00,,,0.01,Wunderground v.1.15,2013-02-24 16:20:00,
2013-02-24 11:25:00,37.6,34.9,29.72,NE,51,2.0,3.0,90,0.00,,,0.01,Wunderground v.1.15,2013-02-24 16:25:00,
2013-02-24 11:30:00,37.6,34.9,29.72,NNE,19,2.0,2.0,90,0.00,,,0.01,Wunderground v.1.15,2013-02-24 16:30:00,
2013-02-24 11:35:00,37.6,34.9,29.71,West,274,2.0,2.0,90,0.00,,,0.01,Wunderground v.1.15,2013-02-24 16:35:00,
2013-02-24 11:45:00,38.0,35.6,29.71,North,355,2.0,2.0,91,0.00,,,0.01,Wunderground v.1.15,2013-02-24 16:45:00,
2013-02-24 11:50:00,38.0,35.6,29.71,NNW,330,2.0,2.0,91,0.00,,,0.01,Wunderground v.1.15,2013-02-24 16:50:00,
2013-02-24 11:55:00,38.0,35.6,29.71,NNW,330,2.0,2.0,91,0.00,,,0.01,Wunderground v.1.15,2013-02-24 16:55:00,
2013-02-24 12:05:00,38.2,35.8,29.71,NNW,336,2.0,6.0,91,0.00,,,0.01,Wunderground v.1.15,2013-02-24 17:05:00,
2013-02-24 12:10:00,38.2,35.5,29.71,NNW,340,3.0,3.0,90,0.00,,,0.01,Wunderground v.1.15,2013-02-24 17:10:00,
2013-02-24 12:20:00,38.3,35.6,29.71,North,5,2.0,2.0,90,0.00,,,0.01,Wunderground v.1.15,2013-02-24 17:20:00,
2013-02-24 12:25:00,38.3,35.3,29.71,NNW,327,3.0,3.0,89,0.00,,,0.01,Wunderground v.1.15,2013-02-24 17:25:00,
2013-02-24 12:30:00,38.6,35.6,29.71,NW,321,2.0,6.0,89,0.00,,,0.01,Wunderground v.1.15,2013-02-24 17:30:00,
2013-02-24 12:40:00,38.9,35.1,29.70,NNW,327,2.0,2.0,86,0.00,,,0.01,Wunderground v.1.15,2013-02-24 17:40:00,
2013-02-24 12:50:00,38.9,35.4,29.70,WNW,302,2.0,2.0,87,0.00,,,0.01,Wunderground v.1.15,2013-02-24 17:50:00,
2013-02-24 13:00:00,39.1,35.3,29.70,ENE,66,2.0,8.0,86,0.00,,,0.01,Wunderground v.1.15,2013-02-24 18:00:00,
2013-02-24 13:05:00,38.8,35.0,29.69,NNW,344,3.0,8.0,86,0.00,,,0.01,Wunderground v.1.15,2013-02-24 18:05:00,
2013-02-24 13:10:00,38.6,34.8,29.69,NNW,346,3.0,3.0,86,0.00,,,0.01,Wunderground v.1.15,2013-02-24 18:10:00,
2013-02-24 13:20:00,39.1,35.3,29.70,NW,314,2.0,2.0,86,0.00,,,0.01,Wunderground v.1.15,2013-02-24 18:20:00,
2013-02-24 13:30:00,39.2,35.7,29.70,NNE,32,2.0,4.0,87,0.00,,,0.01,Wunderground v.1.15,2013-02-24 18:30:00,
2013-02-24 13:35:00,39.3,36.0,29.70,NNW,343,1.0,4.0,88,0.00,,,0.01,Wunderground v.1.15,2013-02-24 18:35:00,
2013-02-24 13:45:00,39.2,35.9,29.70,SW,221,2.0,2.0,88,0.00,,,0.01,Wunderground v.1.15,2013-02-24 18:45:00,
2013-02-24 13:55:00,39.2,35.7,29.70,NNE,30,2.0,2.0,87,0.00,,,0.01,Wunderground v.1.15,2013-02-24 18:55:00,
2013-02-24 14:00:00,39.2,35.4,29.70,North,360,2.0,2.0,86,0.00,,,0.01,Wunderground v.1.15,2013-02-24 19:00:00,
2013-02-24 14:05:00,39.2,34.8,29.70,NNW,340,3.0,3.0,84,0.00,,,0.01,Wunderground v.1.15,2013-02-24 19:05:00,
2013-02-24 14:10:00,39.3,35.2,29.70,NNW,347,2.0,2.0,85,0.00,,,0.01,Wunderground v.1.15,2013-02-24 19:10:00,
2013-02-24 14:20:00,39.1,35.3,29.69,NNE,28,3.0,3.0,86,0.00,,,0.01,Wunderground v.1.15,2013-02-24 19:20:00,
2013-02-24 14:30:00,39.3,34.9,29.69,ENE,59,2.0,4.0,84,0.00,,,0.01,Wunderground v.1.15,2013-02-24 19:30:00,
2013-02-24 14:35:00,39.3,34.6,29.70,ENE,72,3.0,4.0,83,0.00,,,0.01,Wunderground v.1.15,2013-02-24 19:35:00,
2013-02-24 14:40:00,39.5,34.5,29.70,NNE,22,3.0,3.0,82,0.00,,,0.01,Wunderground v.1.15,2013-02-24 19:40:00,
2013-02-24 14:45:00,39.8,34.8,29.70,NNE,17,2.0,3.0,82,0.00,,,0.01,Wunderground v.1.15,2013-02-24 19:45:00,
2013-02-24 14:55:00,40.1,34.4,29.69,NNE,22,1.0,2.0,80,0.00,,,0.01,Wunderground v.1.15,2013-02-24 19:55:00,
2013-02-24 15:00:00,40.1,34.1,29.69,NE,46,1.0,3.0,79,0.00,,,0.01,Wunderground v.1.15,2013-02-24 20:00:00,
2013-02-24 15:10:00,40.1,33.8,29.71,NNE,33,1.0,1.0,78,0.00,,,0.01,Wunderground v.1.15,2013-02-24 20:10:00,
2013-02-24 15:20:00,39.9,33.6,29.71,NE,36,0.0,4.0,78,0.00,,,0.01,Wunderground v.1.15,2013-02-24 20:20:00,
2013-02-24 15:25:00,39.8,33.2,29.71,NE,40,1.0,4.0,77,0.00,,,0.01,Wunderground v.1.15,2013-02-24 20:25:00,
2013-02-24 15:35:00,39.6,33.3,29.72,North,5,1.0,1.0,78,0.00,,,0.01,Wunderground v.1.15,2013-02-24 20:35:00,
2013-02-24 15:40:00,39.5,33.2,29.72,NNE,29,1.0,2.0,78,0.00,,,0.01,Wunderground v.1.15,2013-02-24 20:40:00,
2013-02-24 15:45:00,39.2,33.5,29.72,NE,37,2.0,2.0,80,0.00,,,0.01,Wunderground v.1.15,2013-02-24 20:45:00,
2013-02-24 15:50:00,38.9,33.9,29.72,NNW,341,1.0,1.0,82,0.00,,,0.01,Wunderground v.1.15,2013-02-24 20:50:00,
2013-02-24 15:55:00,38.6,33.9,29.72,NE,49,1.0,1.0,83,0.00,,,0.01,Wunderground v.1.15,2013-02-24 20:55:00,
2013-02-24 16:00:00,38.3,33.9,29.72,NNW,338,0.0,0.0,84,0.00,,,0.01,Wunderground v.1.15,2013-02-24 21:00:00,
2013-02-24 16:05:00,38.2,34.4,29.73,NE,34,0.0,0.0,86,0.00,,,0.02,Wunderground v.1.15,2013-02-24 21:05:00,
2013-02-24 16:10:00,37.9,34.1,29.73,NW,312,1.0,1.0,86,0.00,,,0.02,Wunderground v.1.15,2013-02-24 21:10:00,
2013-02-24 16:15:00,37.8,34.3,29.73,NE,42,1.0,1.0,87,0.06,,,0.03,Wunderground v.1.15,2013-02-24 21:15:00,
2013-02-24 16:25:00,37.3,34.1,29.73,NE,34,2.0,3.0,88,0.06,,,0.03,Wunderground v.1.15,2013-02-24 21:25:00,
2013-02-24 16:30:00,37.2,34.3,29.73,ENE,57,1.0,1.0,89,0.04,,,0.03,Wunderground v.1.15,2013-02-24 21:30:00,
2013-02-24 16:40:00,37.2,34.3,29.74,North,5,0.0,0.0,89,0.00,,,0.03,Wunderground v.1.15,2013-02-24 21:40:00,
2013-02-24 16:45:00,37.2,34.5,29.74,North,349,0.0,0.0,90,0.00,,,0.04,Wunderground v.1.15,2013-02-24 21:45:00,
2013-02-24 16:50:00,37.0,34.3,29.74,NNW,330,0.0,3.0,90,0.00,,,0.04,Wunderground v.1.15,2013-02-24 21:50:00,
2013-02-24 16:55:00,36.9,34.2,29.74,NNW,336,1.0,3.0,90,0.00,,,0.04,Wunderground v.1.15,2013-02-24 21:55:00,
2013-02-24 17:00:00,36.6,34.2,29.74,NNW,336,1.0,1.0,91,0.04,,,0.05,Wunderground v.1.15,2013-02-24 22:00:00,
2013-02-24 17:05:00,36.6,34.2,29.75,NNW,336,0.0,1.0,91,0.04,,,0.05,Wunderground v.1.15,2013-02-24 22:05:00,
2013-02-24 17:10:00,36.5,34.1,29.75,NNW,336,0.0,0.0,91,0.04,,,0.05,Wunderground v.1.15,2013-02-24 22:10:00,
2013-02-24 17:15:00,36.5,34.1,29.75,NNW,336,0.0,1.0,91,0.00,,,0.05,Wunderground v.1.15,2013-02-24 22:15:00,
2013-02-24 17:25:00,36.3,33.9,29.75,NW,316,2.0,5.0,91,0.00,,,0.05,Wunderground v.1.15,2013-02-24 22:25:00,
2013-02-24 17:30:00,36.2,33.5,29.75,North,5,3.0,3.0,90,0.00,,,0.05,Wunderground v.1.15,2013-02-24 22:30:00,
2013-02-24 17:40:00,36.3,32.5,29.76,NNW,334,2.0,2.0,86,0.00,,,0.05,Wunderground v.1.15,2013-02-24 22:40:00,
2013-02-24 17:45:00,36.3,32.5,29.76,North,360,1.0,3.0,86,0.00,,,0.05,Wunderground v.1.15,2013-02-24 22:45:00,
2013-02-24 17:55:00,36.2,32.1,29.77,NNW,338,0.0,0.0,85,0.00,,,0.05,Wunderground v.1.15,2013-02-24 22:55:00,
2013-02-24 18:05:00,35.9,30.9,29.78,North,350,1.0,2.0,82,0.00,,,0.05,Wunderground v.1.15,2013-02-24 23:05:00,
2013-02-24 18:15:00,36.0,29.8,29.78,NNW,338,1.0,3.0,78,0.00,,,0.05,Wunderground v.1.15,2013-02-24 23:15:00,
2013-02-24 18:25:00,36.0,28.8,29.78,NNW,346,2.0,2.0,75,0.00,,,0.05,Wunderground v.1.15,2013-02-24 23:25:00,
2013-02-24 18:35:00,36.0,28.2,29.80,NNE,13,1.0,2.0,73,0.00,,,0.05,Wunderground v.1.15,2013-02-24 23:35:00,
2013-02-24 18:45:00,35.9,27.4,29.80,NNE,19,1.0,3.0,71,0.00,,,0.05,Wunderground v.1.15,2013-02-24 23:45:00,
2013-02-24 18:50:00,35.9,27.4,29.80,NNW,348,2.0,4.0,71,0.00,,,0.05,Wunderground v.1.15,2013-02-24 23:50:00,
2013-02-24 18:55:00,35.9,26.7,29.80,NNW,340,2.0,5.0,69,0.00,,,0.05,Wunderground v.1.15,2013-02-24 23:55:00,
2013-02-24 19:00:00,35.9,27.1,29.80,WNW,299,2.0,2.0,70,0.00,,,0.05,Wunderground v.1.15,2013-02-25 00:00:00,
2013-02-24 19:10:00,35.6,27.1,29.81,NNW,329,2.0,5.0,71,0.00,,,0.05,Wunderground v.1.15,2013-02-25 00:10:00,
2013-02-24 19:15:00,35.6,26.8,29.81,WNW,300,2.0,5.0,70,0.00,,,0.05,Wunderground v.1.15,2013-02-25 00:15:00,
2013-02-24 19:25:00,35.3,27.2,29.82,NNW,344,2.0,3.0,72,0.00,,,0.05,Wunderground v.1.15,2013-02-25 00:25:00,
2013-02-24 19:30:00,35.2,27.1,29.82,North,9,2.0,2.0,72,0.00,,,0.05,Wunderground v.1.15,2013-02-25 00:30:00,
2013-02-24 19:35:00,35.0,27.2,29.83,NNW,342,1.0,2.0,73,0.00,,,0.05,Wunderground v.1.15,2013-02-25 00:35:00,
2013-02-24 19:45:00,34.7,27.9,29.83,NE,42,1.0,2.0,76,0.00,,,0.05,Wunderground v.1.15,2013-02-25 00:45:00,
2013-02-24 19:50:00,34.4,27.9,29.84,NNW,348,1.0,1.0,77,0.00,,,0.05,Wunderground v.1.15,2013-02-25 00:50:00,
2013-02-24 19:55:00,34.0,28.2,29.84,NNW,328,1.0,2.0,79,0.00,,,0.05,Wunderground v.1.15,2013-02-25 00:55:00,
2013-02-24 20:00:00,33.7,28.5,29.84,North,5,1.0,2.0,81,0.00,,,0.05,Wunderground v.1.15,2013-02-25 01:00:00,
2013-02-24 20:35:00,32.9,28.9,29.86,NNW,342,0.0,0.0,85,0.00,,,0.05,Wunderground v.1.15,2013-02-25 01:35:00,
2013-02-24 20:40:00,33.1,28.8,29.86,West,275,1.0,1.0,84,0.00,,,0.05,Wunderground v.1.15,2013-02-25 01:40:00,
2013-02-24 20:45:00,33.1,28.8,29.86,NW,325,1.0,1.0,84,0.00,,,0.05,Wunderground v.1.15,2013-02-25 01:45:00,
2013-02-24 20:50:00,33.2,28.6,29.86,North,355,1.0,1.0,83,0.00,,,0.05,Wunderground v.1.15,2013-02-25 01:50:00,
2013-02-24 20:55:00,33.2,28.3,29.86,NNW,336,1.0,1.0,82,0.00,,,0.05,Wunderground v.1.15,2013-02-25 01:55:00,
2013-02-24 21:05:00,33.2,28.0,29.86,NNW,334,1.0,1.0,81,0.00,,,0.05,Wunderground v.1.15,2013-02-25 02:05:00,
2013-02-24 21:10:00,33.2,28.3,29.86,NNE,23,1.0,1.0,82,0.00,,,0.05,Wunderground v.1.15,2013-02-25 02:10:00,
2013-02-24 21:15:00,33.1,28.2,29.86,WNW,299,1.0,1.0,82,0.00,,,0.05,Wunderground v.1.15,2013-02-25 02:15:00,
2013-02-24 21:20:00,33.1,28.5,29.87,NNW,341,1.0,1.0,83,0.00,,,0.05,Wunderground v.1.15,2013-02-25 02:20:00,
2013-02-24 21:25:00,33.1,28.5,29.87,NNE,20,1.0,1.0,83,0.00,,,0.05,Wunderground v.1.15,2013-02-25 02:25:00,
2013-02-24 21:30:00,32.9,28.3,29.87,NNW,338,1.0,3.0,83,0.00,,,0.05,Wunderground v.1.15,2013-02-25 02:30:00,
2013-02-24 21:40:00,33.1,28.5,29.86,North,355,0.0,0.0,83,0.00,,,0.05,Wunderground v.1.15,2013-02-25 02:40:00,
2013-02-24 21:45:00,33.1,27.9,29.86,NW,316,1.0,1.0,81,0.00,,,0.05,Wunderground v.1.15,2013-02-25 02:45:00,
2013-02-24 21:55:00,33.5,27.7,29.87,North,5,2.0,2.0,79,0.00,,,0.05,Wunderground v.1.15,2013-02-25 02:55:00,
2013-02-24 22:05:00,33.7,27.6,29.88,NNE,12,1.0,3.0,78,0.00,,,0.05,Wunderground v.1.15,2013-02-25 03:05:00,
2013-02-24 22:10:00,33.8,27.7,29.88,NW,313,1.0,1.0,78,0.00,,,0.05,Wunderground v.1.15,2013-02-25 03:10:00,
2013-02-24 22:20:00,33.8,27.4,29.88,NE,51,0.0,0.0,77,0.00,,,0.05,Wunderground v.1.15,2013-02-25 03:20:00,
2013-02-24 22:25:00,33.8,27.4,29.88,NW,326,0.0,0.0,77,0.00,,,0.05,Wunderground v.1.15,2013-02-25 03:25:00,
2013-02-24 22:35:00,33.8,27.0,29.88,NNW,343,1.0,1.0,76,0.00,,,0.05,Wunderground v.1.15,2013-02-25 03:35:00,
2013-02-24 22:45:00,33.8,26.7,29.88,North,360,0.0,1.0,75,0.00,,,0.05,Wunderground v.1.15,2013-02-25 03:45:00,
2013-02-24 22:50:00,33.8,26.7,29.88,NW,306,0.0,0.0,75,0.00,,,0.05,Wunderground v.1.15,2013-02-25 03:50:00,
2013-02-24 23:00:00,33.8,26.7,29.88,NNE,24,1.0,1.0,75,0.00,,,0.05,Wunderground v.1.15,2013-02-25 04:00:00,
2013-02-24 23:05:00,33.8,26.7,29.89,North,360,1.0,1.0,75,0.00,,,0.05,Wunderground v.1.15,2013-02-25 04:05:00,
2013-02-24 23:10:00,33.8,26.7,29.89,North,360,0.0,0.0,75,0.00,,,0.05,Wunderground v.1.15,2013-02-25 04:10:00,
2013-02-24 23:15:00,33.8,26.7,29.89,NNW,336,1.0,1.0,75,0.00,,,0.05,Wunderground v.1.15,2013-02-25 04:15:00,
2013-02-24 23:25:00,33.8,26.4,29.89,NNW,344,1.0,2.0,74,0.00,,,0.05,Wunderground v.1.15,2013-02-25 04:25:00,
2013-02-24 23:30:00,33.8,26.1,29.89,NNW,336,2.0,2.0,73,0.00,,,0.05,Wunderground v.1.15,2013-02-25 04:30:00,
2013-02-24 23:35:00,33.8,26.4,29.89,NNW,333,1.0,2.0,74,0.00,,,0.05,Wunderground v.1.15,2013-02-25 04:35:00,
2013-02-24 23:40:00,33.8,26.4,29.89,NNW,340,0.0,0.0,74,0.00,,,0.05,Wunderground v.1.15,2013-02-25 04:40:00,
2013-02-24 23:50:00,33.7,26.3,29.89,NNW,340,1.0,2.0,74,0.00,,,0.05,Wunderground v.1.15,2013-02-25 04:50:00,